Sioux Falls, SD

11:05 AM CDT on July 23, 2017 (GMT -0500)
Foss

Weather History for KFSD - March, 2013

Change the Weather History Date:

Friday, March 8, 2013

  Actual Average Record
Temperature  
Mean Temperature 34 °F 29 °F  
Max Temperature 43 °F 39 °F 67 °F (1911)
Min Temperature 24 °F 20 °F -15 °F (1995)
Degree Days  
Heating Degree Days 31 36  
Month to date heating degree days 321 296  
Since 1 July heating degree days 5940 6146  
Cooling Degree Days 0 0  
Month to date cooling degree days 0 0  
Year to date cooling degree days 0 0  
Moisture  
Dew Point 30 °F    
Average Humidity 85    
Maximum Humidity 97    
Minimum Humidity 64    
Precipitation  
Precipitation 0.08 in 0.04 in 1.30 in (1893)
Month to date precipitation 0.11 0.29  
Year to date precipitation 1.46 1.45  
Snow  
Snow 0.00 in 0.30 in 9.30 in (1999)
Month to date snowfall 0.6 2.5  
Since 1 July snowfall 26.1 34.0  
Snow Depth 1.00 in    
Sea Level Pressure  
Sea Level Pressure 30.11 in    
Wind  
Wind Speed 9 mph (ESE)    
Max Wind Speed 18 mph    
Max Gust Speed 23 mph    
Visibility 6 miles    
Events Rain    
T = Trace of Precipitation, MM = Missing Value Source: NWS Daily Summary

Daily Weather History Graph

Daily Weather History Graph

Search for Another Location

Airport or City:

Trip Planner

Search our weather history database for the weather conditions in past years. The results will help you decide how hot, cold, wet, or windy it might be!

Date:

Astronomy

Mar. 08, 2013 Rise Set
Actual Time 6:50 AM CST 6:24 PM CST
Civil Twilight 6:22 AM CST 6:53 PM CST
Nautical Twilight 5:49 AM CST 7:26 PM CST
Astronomical Twilight 5:15 AM CST 8:00 PM CST
Moon 4:41 AM CST (3/8) 3:16 PM CST (3/8)
Length of Visible Light 12h 31m
Length of Day
11h 33m
Waning Crescent, 11% of the Moon is Illuminated
Mar 8
Waning Crescent
Mar 11
New
Mar 19
First Quarter
Mar 27
Full
Apr 2
Last Quarter

Hourly Weather History & Observations

Time (CST) Temp. Windchill Dew Point Humidity Pressure Visibility Wind Dir Wind Speed Gust Speed Precip Events Conditions
12:56 AM 28.9 °F 20.4 °F 26.1 °F 89% 30.23 in 9.0 mi SE 9.2 mph - N/A   Clear
1:56 AM 28.9 °F 21.1 °F 25.0 °F 85% 30.24 in 9.0 mi SE 8.1 mph - N/A   Clear
2:56 AM 28.9 °F 23.9 °F 25.0 °F 85% 30.23 in 10.0 mi SSE 4.6 mph - N/A   Clear
3:56 AM 27.0 °F 23.0 °F 25.0 °F 92% 30.21 in 8.0 mi SE 3.5 mph - N/A   Clear
4:56 AM 25.0 °F 20.7 °F 23.0 °F 92% 30.22 in 7.0 mi East 3.5 mph - N/A   Clear
5:56 AM 25.0 °F 20.7 °F 23.0 °F 92% 30.23 in 6.0 mi ESE 3.5 mph - N/A   Clear
6:56 AM 24.1 °F 18.2 °F 21.9 °F 91% 30.22 in 6.0 mi East 4.6 mph - N/A   Clear
7:56 AM 26.1 °F 20.5 °F 24.1 °F 92% 30.22 in 5.0 mi East 4.6 mph - N/A   Clear
8:56 AM 28.9 °F 22.8 °F 25.0 °F 85% 30.23 in 7.0 mi East 5.8 mph - N/A   Clear
9:56 AM 33.1 °F 26.1 °F 26.1 °F 75% 30.23 in 9.0 mi SE 8.1 mph - N/A   Clear
10:56 AM 35.1 °F 27.9 °F 28.9 °F 78% 30.19 in 9.0 mi East 9.2 mph - N/A   Clear
11:56 AM 37.9 °F 32.1 °F 30.0 °F 73% 30.17 in 9.0 mi East 8.1 mph - N/A   Clear
12:56 PM 39.9 °F 34.5 °F 33.1 °F 77% 30.16 in 8.0 mi East 8.1 mph - N/A   Clear
1:56 PM 42.1 °F 36.1 °F 34.0 °F 73% 30.11 in 8.0 mi East 10.4 mph - N/A   Clear
2:56 PM 42.1 °F 34.9 °F 34.0 °F 73% 30.09 in 8.0 mi East 13.8 mph - N/A   Clear
3:56 PM 43.0 °F 35.1 °F 35.1 °F 74% 30.07 in 7.0 mi ESE 17.3 mph - N/A   Clear
4:56 PM 41.0 °F 33.5 °F 35.1 °F 79% 30.06 in 6.0 mi East 13.8 mph - N/A   Haze
5:56 PM 39.0 °F 31.4 °F 35.1 °F 86% 30.05 in 6.0 mi East 12.7 mph - 0.00 in Rain Light Rain
6:56 PM 37.0 °F 29.3 °F 34.0 °F 89% 30.06 in 6.0 mi East 11.5 mph - 0.00 in   Overcast
7:56 PM 36.0 °F 27.5 °F 33.1 °F 89% 30.04 in 6.0 mi East 12.7 mph - N/A   Overcast
8:56 PM 35.1 °F 25.5 °F 32.0 °F 89% 30.01 in 5.0 mi East 15.0 mph - 0.00 in   Overcast
9:56 PM 36.0 °F 29.0 °F 33.1 °F 89% 30.01 in 5.0 mi SE 9.2 mph - 0.00 in   Overcast
10:18 PM 35.6 °F 28.6 °F 33.8 °F 93% 29.96 in 4.0 mi ESE 9.2 mph - 0.00 in Rain Light Rain
10:56 PM 35.1 °F 27.4 °F 34.0 °F 96% 29.98 in 4.0 mi ESE 10.4 mph - 0.01 in   Overcast
11:03 PM 35.6 °F 28.0 °F 33.8 °F 93% 29.94 in 3.0 mi East 10.4 mph - 0.00 in Rain Light Rain
11:14 PM 35.6 °F 28.6 °F 33.8 °F 93% 29.93 in 2.5 mi ESE 9.2 mph - 0.01 in Rain Light Rain
11:56 PM 36.0 °F 28.5 °F 35.1 °F 97% 29.95 in 2.5 mi SE 10.4 mph - 0.07 in Rain Light Rain